Showing default

H2SAT, 57213

Orbit data source: Space-Track

H2SAT, 57213 is a payload satellite owned by DLR (DE) in GEO that was launched on Wed, 05 Jul 2023 UTC via an ARIANE 5ECA+ launch vehicle from the French Guiana (FRGUI). Payload-class satellites include a variety of spacecraft equipped with specific instruments for various scientific and technological missions. These include communications satellites like Starlink; space stations such as the ISS; scientific satellites like the Hubble; Earth observation satellites from companies like Planet Labs, Umbra, and HawkEye 360; GPS; miniature CubeSats for education and research; and military/defense satellites.

Not visible in the next 10 days
Identifier
57213, 2023-093A
Orbit
GEO
Country
Flag of DEDE / GER
Related business
Manufacturer
OHB
Mission
Operational Civil Communications
Bus & Motor
LUXOR, ?
Mass
3,408 kg wet, ~3,200 kg dry
Launch date (UTC)
2023-07-05 (3 years ago)
Launch vehicle
ARIANE 5ECA+
Launch site
French Guiana (FRGUI)
Object type
Payload
Rocket body
Debris
Shape & HBR
Box + 2 Pan, 7.5 m
Radar Cross Section
14.987 m², Large (>1 m²)

Expand to show TLE details & history
Last TLE update: 2 days ago

TLE from 2 days ago
0 H2SAT
1 57213U 23093A   26170.96441058 -.00000004  00000-0  00000-0 0  9993
2 57213   0.0547 104.6262 0000924  92.6961  58.7472  1.00267176 10942
Epoch: 2026-06-19T23:08Z
TLE epoch observation values (Epoch: 2026-06-19T23:08:45.074Z)
Latitude
0.0044°
Longitude
0.71756°
Altitude
35,785.356 km
Speed
3.075 km/s
True Right ascension
17h 04m 21s
True Declination
0° 00' 16"
Sunlit
Object was in daylight at epoch
Visualization orbit readout
Latitude
Unknown
Longitude
Unknown
Altitude
Unknown
Speed
Unknown
Apparent Right ascension
Unknown
Apparent Declination
Unknown
Sunlit
N/A
Visualization observer readout
Local Sidereal Time
21:33:18
Azimuth
Unknown
Elevation
Unknown
Doppler factor
Unknown
Orbital elements
Apogee altitude
35,792.854 km
Perigee altitude
35,785.061 km
Semi-major axis
42,167.094 km
Eccentricity
0.00009
Inclination
0.0547°
RAAN
104.6262°
Arg. of periapsis
92.6961°
True anomaly
58.75625°
Mean anomaly
58.7472°
Eccentric anomaly
58.75173°
Mean motion
0.25066 °/min
Orbital period
1,436.22 mins
BSTAR
0
Loading maneuver chart data...
Computing Atmospheric mass density...
Loading historical data...
Loading historical data...
Loading historical data...
Loading historical data...
Loading historical data...
Loading historical data...
Loading historical data...
Other satellites on launch #93 in the year 2023 (2023-07-05 UTC)

Documentation

Showing up to 5 results
|